This is the latest recevied weather packets stored in our database for station/object EA3ANS-1. If no packets are shown the sender has not sent any weather packets the latest 1 day(s).
| Time | Temp. | Humidity | Pressure | Rain* | Wind** | Luminosity | Snow |
|---|---|---|---|---|---|---|---|
| 1778068966 | 20° C | - | 1011.3 hPa | 0 mm | 2.24 m/s, 309° | - | - |
| 1778067173 | 20.56° C | - | 1011.4 hPa | 0 mm | 0.89 m/s, 197° | - | - |
| 1778066570 | 20° C | - | 1011.6 hPa | 0 mm | 4.47 m/s, 242° | - | - |
| 1778065973 | 20° C | - | 1011.6 hPa | 0 mm | 1.79 m/s, 338° | - | - |
| 1778064763 | 19.44° C | - | 1011.8 hPa | 0 mm | 1.79 m/s, 194° | - | - |
| 1778062965 | 18.89° C | - | 1012 hPa | 0 mm | 2.68 m/s, 229° | - | - |
| 1778061766 | 18.33° C | - | 1012.2 hPa | 0 mm | 1.34 m/s, 32° | - | - |
| 1778060563 | 17.22° C | - | 1012.5 hPa | 0 mm | 0.45 m/s, 177° | - | - |
| 1778059966 | 16.67° C | - | 1012.6 hPa | 0 mm | 0 m/s | - | - |
| 1778059364 | 17.22° C | - | 1012.8 hPa | 0 mm | 0.45 m/s, 333° | - | - |
| 1778058767 | 16.11° C | - | 1012.7 hPa | 0 mm | 1.34 m/s, 84° | - | - |
| 1778057561 | 15° C | - | 1012.7 hPa | 0 mm | 2.24 m/s, 342° | - | - |
| 1778056363 | 14.44° C | - | 1012.8 hPa | 0 mm | 1.79 m/s, 311° | - | - |
| 1778055761 | 13.89° C | - | 1012.7 hPa | 0 mm | 1.79 m/s, 13° | - | - |
| 1778054565 | 13.89° C | - | 1012.5 hPa | 0 mm | 2.68 m/s, 332° | - | - |
| 1778053361 | 12.78° C | - | 1012.5 hPa | 0 mm | 2.68 m/s, 333° | - | - |
| 1778051561 | 11.11° C | - | 1012.5 hPa | 0 mm | 3.13 m/s, 336° | - | - |
| 1778050366 | 10.56° C | - | 1012.6 hPa | 0 mm | 3.13 m/s, 326° | - | - |
| 1778049162 | 10° C | - | 1012.5 hPa | 0 mm | 2.68 m/s, 347° | - | - |
| 1778048563 | 10° C | - | 1012.5 hPa | 0 mm | 2.68 m/s, 1° | - | - |
| 1778047960 | 10° C | - | 1012.5 hPa | 0 mm | 2.68 m/s, 25° | - | - |
| 1778047363 | 9.44° C | - | 1012.3 hPa | 0 mm | 3.13 m/s, 318° | - | - |
| 1778046766 | 10° C | - | 1012.2 hPa | 0 mm | 2.68 m/s, 321° | - | - |
| 1778044366 | 8.89° C | - | 1012.1 hPa | 0 mm | 2.24 m/s, 300° | - | - |
| 1778043769 | 9.44° C | - | 1011.9 hPa | 0 mm | 2.24 m/s, 309° | - | - |
* Rain latest hour (hover to see other rain measurements)
** Current wind speed in m/s (hover to see current wind gust speed)